Regional Weather Roundup
Issued by NWS

Home | Current Version | Previous Version | Text Only | Print | Product List | Glossary On
Versions: 1 2 3 4 5 6 7 8 9 10 11 12 13 14 15 16 17 18 19 20 21 22 23 24 25 26 27 28 29 30 31 32 33 34 35 36 37 38 39 40 41 42 43 44 45 46 47 48 49 50
000
ASUS44 KBMX 270110
RWRAL

ALABAMA REGIONAL WEATHER ROUNDUP
NATIONAL WEATHER SERVICE BIRMINGHAM AL
800 PM CDT THU MAR 26 2015

NOTE: "FAIR" INDICATES FEW OR NO CLOUDS BELOW 12,000 FEET
WITH NO SIGNIFICANT WEATHER AND/OR OBSTRUCTIONS TO VISIBILITY.

THE REMARK "TC" DENOTES TEMPERATURE IN DEGREES CELSIUS.

ALZ001>011-014-016>018-020-270200-
NORTH ALABAMA

CITY           SKY/WX    TMP DP  RH WIND       PRES   REMARKS
MUSCLE SHOALS  LGT RAIN  47  41  80 N12G22    29.96R
HUNTSVILLE     LGT RAIN  50  45  83 N16       29.91R
DECATUR        LGT RAIN  48  45  89 N16       29.92R
HALEYVILLE     LGT RAIN  46  46 100 N10       29.93R
GADSDEN        CLOUDY    64  52  63 NW15      29.80R
$$

ALZ012-013-022-023-030>036-040>044-270200-
WEST CENTRAL ALABAMA

CITY           SKY/WX    TMP DP  RH WIND       PRES   REMARKS
TUSCALOOSA     CLOUDY    65  54  67 NW17G23   29.83R
$$

ALZ015-024>027-033>036-040>044-270200-
CENTRAL ALABAMA

CITY           SKY/WX    TMP DP  RH WIND       PRES   REMARKS
BIRMINGHAM     CLOUDY    68  60  75 SW12      29.82R
MONTGOMERY     TSTM      66  64  94 VRB6      29.81R VSB 1
SHELBY CO ARPT CLOUDY    65  62  90 S6        29.82R
MAXWELL AFB    TSTM      68  64  88 SW8       29.82R FOG
GREENVILLE     RAIN      66  63  88 SW10      29.84R FOG
$$

ALZ019-021-028-029-037-038-045>048-270200-
EAST CENTRAL ALABAMA

CITY           SKY/WX    TMP DP  RH WIND       PRES   REMARKS
ANNISTON       CLOUDY    65  60  84 W7        29.80R
ALEXANDER CITY RAIN      69  58  66 SW7       29.82R
AUBURN         CLOUDY    66  57  72 S7        29.83S THUNDER
$$

ALZ051>064-270200-
SOUTHWEST ALABAMA

CITY           SKY/WX    TMP DP  RH WIND       PRES   REMARKS
MOBILE         CLOUDY    65  63  93 S5        29.85F
BROOKLEY FIELD CLOUDY    66  64  93 W3        29.87S
EVERGREEN      LGT RAIN  67  63  87 SW8       29.86R
$$

ALZ049-050-065>069-270200-
SOUTHEAST ALABAMA

CITY           SKY/WX    TMP DP  RH WIND       PRES   REMARKS
DOTHAN         CLOUDY    65  61  87 SW8       29.88R
OZARK          CLOUDY    66  60  81 SW8       29.85R
TROY           CLOUDY    68  62  81 S9        29.84R
EUFAULA        FAIR      67  62  84 CALM      29.82R
$$



USA.gov is the U.S. government's official web portal to all federal, state and local government web resources and services.